Location: Yecla
(38.6122°N, 1.1101°W)
Time: 07:26:08
(UTC+01:00)

N. Korean satellite - Visible Passes

Search period start: 14 November 2019 00:00
Search period end: 24 November 2019 00:00
Orbit: 456 x 506 km, 97.2° (Epoch: 12 November)

Date Brightness Start Highest point End Pass type
(mag) Time Alt. Az. Time Alt. Az. Time Alt. Az.
14 Nov 9.5 06:11:50 10° NE 06:14:43 21° E 06:17:33 10° SE visible
14 Nov 6.9 18:18:09 10° S 18:21:42 74° W 18:25:22 10° NNW visible
15 Nov 10.4 05:49:08 10° E 05:49:09 10° E 05:49:09 10° E visible
16 Nov 6.8 06:53:44 10° NNE 06:57:27 79° E 07:01:07 10° S visible
16 Nov 9.6 19:01:48 10° SW 19:04:27 19° W 19:07:10 10° NW visible
17 Nov 8.5 06:28:37 10° NNE 06:32:02 34° E 06:35:23 10° SSE visible
17 Nov 8.1 18:35:33 10° S 18:38:58 41° W 18:42:27 10° NNW visible
18 Nov 9.8 06:04:05 10° NE 06:06:31 17° E 06:08:55 10° SE visible
19 Nov 6.6 07:11:00 10° N 07:14:39 59° WNW 07:18:13 10° SSW visible
19 Nov 10.2 19:20:23 10° WSW 19:21:48 12° W 19:23:14 10° WNW visible
20 Nov 7.2 06:45:37 10° NNE 06:49:17 60° E 06:52:52 10° S visible
20 Nov 9.2 18:53:13 10° SSW 18:56:14 24° W 18:59:18 10° NW visible
21 Nov 8.9 06:20:38 10° NE 06:23:50 27° E 06:26:56 10° SSE visible
21 Nov 7.5 18:27:11 10° S 18:30:45 54° W 18:34:23 10° NNW visible
22 Nov 10.0 05:56:27 10° ENE 05:58:15 13° E 06:00:02 10° ESE visible
23 Nov 6.5 07:02:46 10° N 07:06:27 76° WNW 07:10:03 10° SSW visible
23 Nov 9.9 19:11:20 10° SW 19:13:31 15° W 19:15:44 10° NW visible
